Weather History for KMCD - November, 2012

Change the Weather History Date:

Friday, November 30, 2012

  Actual Average Record
Temperature  
Mean Temperature 27 °F -  
Max Temperature 32 °F 35 °F 60 °F (1998)
Min Temperature 23 °F 27 °F 6 °F (1986)
Degree Days  
Heating Degree Days 38    
Moisture  
Dew Point 21 °F    
Average Humidity 80    
Maximum Humidity 92    
Minimum Humidity 70    
Precipitation  
Precipitation 0.00 in - - ()
Sea Level Pressure  
Sea Level Pressure 30.33 in    
Wind  
Wind Speed 12 mph (East)    
Max Wind Speed 20 mph    
Max Gust Speed 31 mph    
Visibility 8 miles    
Events Snow    
Averages and records for this station are not official NWS values.
T = Trace of Precipitation, MM = Missing Value Source: NWS Daily Summary

Daily Weather History Graph

Daily Weather History Graph

Search for Another Location

Airport or City:

Trip Planner

Search our weather history database for the weather conditions in past years. The results will help you decide how hot, cold, wet, or windy it might be!

Date:

Astronomy

Nov. 30, 2012 Rise Set
Actual Time 7:58 AM EST 4:55 PM EST
Civil Twilight 7:25 AM EST 5:29 PM EST
Nautical Twilight 6:47 AM EST 6:06 PM EST
Astronomical Twilight 6:12 AM EST 6:42 PM EST
Moon 6:50 PM EST (11/30) 9:29 AM EST (11/30)
Length of Visible Light 10h 04m
Length of Day
8h 56m
Waning Gibbous, 96% of the Moon is Illuminated
Nov 30
Waning Gibbous
Dec 6
Last Quarter
Dec 13
New
Dec 20
First Quarter
Dec 28
Full

Hourly Weather History & Observations

Time (EST) Temp. Windchill Dew Point Humidity Pressure Visibility Wind Dir Wind Speed Gust Speed Precip Events Conditions
12:16 AM 24.4 °F 14.9 °F 16.0 °F 70% 30.31 in 10.0 mi East 9.2 mph 20.7 mph N/A   Overcast
12:36 AM 24.6 °F 15.1 °F 17.8 °F 75% 30.31 in 10.0 mi East 9.2 mph 20.7 mph N/A   Overcast
12:55 AM 24.6 °F 15.1 °F 17.8 °F 75% 30.31 in 10.0 mi East 9.2 mph 21.9 mph N/A   Overcast
1:16 AM 24.8 °F 14.6 °F 17.4 °F 74% 30.32 in 10.0 mi East 10.4 mph 17.3 mph N/A   Overcast
1:36 AM 25.2 °F 13.9 °F 18.3 °F 75% 30.31 in 10.0 mi East 12.7 mph 20.7 mph N/A   Overcast
1:55 AM 25.2 °F 15.1 °F 16.7 °F 70% 30.32 in 10.0 mi East 10.4 mph 18.4 mph N/A   Overcast
2:16 AM 25.2 °F 13.3 °F 16.5 °F 70% 30.33 in 10.0 mi East 13.8 mph 19.6 mph N/A   Overcast
2:36 AM 25.0 °F 15.5 °F 17.2 °F 72% 30.33 in 10.0 mi East 9.2 mph 24.2 mph N/A   Overcast
2:55 AM 25.2 °F 14.4 °F 18.0 °F 74% 30.33 in 10.0 mi East 11.5 mph 20.7 mph N/A   Overcast
3:16 AM 25.2 °F 14.4 °F 17.4 °F 72% 30.34 in 10.0 mi East 11.5 mph 24.2 mph N/A   Overcast
3:36 AM 24.6 °F 13.2 °F 17.4 °F 74% 30.34 in 10.0 mi East 12.7 mph 21.9 mph N/A   Overcast
3:55 AM 24.8 °F 13.4 °F 17.6 °F 74% 30.34 in 10.0 mi East 12.7 mph 21.9 mph N/A   Overcast
4:16 AM 24.6 °F 13.2 °F 18.1 °F 76% 30.33 in 10.0 mi East 12.7 mph 21.9 mph N/A   Overcast
4:36 AM 24.4 °F 11.9 °F 17.4 °F 75% 30.33 in 10.0 mi East 15.0 mph 23.0 mph N/A   Overcast
4:55 AM 24.8 °F 14.0 °F 17.6 °F 74% 30.33 in 10.0 mi East 11.5 mph 21.9 mph N/A   Overcast
5:16 AM 24.8 °F 12.9 °F 18.7 °F 78% 30.33 in 10.0 mi East 13.8 mph 25.3 mph N/A   Overcast
5:36 AM 24.8 °F 13.4 °F 19.0 °F 79% 30.33 in 10.0 mi East 12.7 mph 24.2 mph N/A   Overcast
5:55 AM 24.8 °F 11.5 °F 19.9 °F 82% 30.33 in 7.0 mi East 17.3 mph 25.3 mph N/A   Overcast
6:16 AM 24.8 °F 12.9 °F 20.1 °F 82% 30.33 in 7.0 mi East 13.8 mph 25.3 mph N/A   Overcast
6:36 AM 24.8 °F 12.4 °F 20.1 °F 82% 30.33 in 10.0 mi East 15.0 mph 26.5 mph N/A   Overcast
6:55 AM 24.4 °F 12.4 °F 19.2 °F 81% 30.33 in 10.0 mi East 13.8 mph 26.5 mph N/A   Overcast
7:16 AM 24.4 °F 10.2 °F 18.3 °F 78% 30.34 in 10.0 mi East 19.6 mph 27.6 mph N/A   Overcast
7:35 AM 23.9 °F 9.9 °F 17.4 °F 76% 30.35 in 10.0 mi East 18.4 mph 31.1 mph N/A   Overcast
7:56 AM 23.9 °F 10.8 °F 17.1 °F 75% 30.35 in 10.0 mi East 16.1 mph 26.5 mph N/A   Overcast
8:16 AM 23.9 °F 10.8 °F 17.4 °F 76% 30.35 in 10.0 mi East 16.1 mph 26.5 mph N/A   Overcast
8:35 AM 23.9 °F 11.2 °F 17.2 °F 76% 30.35 in 10.0 mi East 15.0 mph 26.5 mph N/A   Overcast
8:56 AM 23.9 °F 12.9 °F 17.2 °F 76% 30.35 in 10.0 mi East 11.5 mph 23.0 mph N/A   Overcast
9:15 AM 23.9 °F 10.8 °F 16.7 °F 74% 30.35 in 10.0 mi East 16.1 mph 25.3 mph N/A   Overcast
9:35 AM 23.7 °F 11.5 °F 16.2 °F 73% 30.35 in 10.0 mi East 13.8 mph 24.2 mph N/A   Overcast
9:56 AM 23.9 °F 11.2 °F 16.2 °F 72% 30.35 in 10.0 mi East 15.0 mph 27.6 mph N/A   Overcast
10:15 AM 23.7 °F 11.5 °F 15.1 °F 70% 30.35 in 10.0 mi East 13.8 mph 26.5 mph N/A   Overcast
10:35 AM 23.9 °F 13.5 °F 15.8 °F 71% 30.36 in 10.0 mi East 10.4 mph 27.6 mph N/A   Overcast
10:56 AM 23.7 °F 10.5 °F 16.0 °F 72% 30.37 in 10.0 mi East 16.1 mph 24.2 mph N/A   Overcast
11:15 AM 23.9 °F 12.3 °F 16.5 °F 73% 30.36 in 10.0 mi East 12.7 mph 20.7 mph N/A   Overcast
11:36 AM 24.3 °F 15.4 °F 18.0 °F 77% 30.36 in 2.5 mi East 8.1 mph 23.0 mph N/A Snow Light Snow
11:56 AM 24.4 °F 12.4 °F 18.9 °F 79% 30.35 in 2.0 mi East 13.8 mph 24.2 mph N/A Snow Light Snow
12:15 PM 24.8 °F 14.0 °F 19.0 °F 79% 30.35 in 3.0 mi East 11.5 mph 24.2 mph N/A Snow Light Snow
12:36 PM 25.2 °F 13.9 °F 19.9 °F 81% 30.34 in 3.0 mi East 12.7 mph 24.2 mph N/A   Haze
12:56 PM 25.2 °F 14.4 °F 19.9 °F 81% 30.34 in 3.0 mi East 11.5 mph 24.2 mph N/A   Haze
1:15 PM 25.5 °F 14.3 °F 20.7 °F 82% 30.33 in 3.0 mi East 12.7 mph 21.9 mph N/A   Haze
1:36 PM 25.7 °F 15.1 °F 21.0 °F 82% 30.33 in 5.0 mi East 11.5 mph 25.3 mph N/A   Haze
1:56 PM 26.2 °F 14.2 °F 21.2 °F 81% 30.32 in 10.0 mi East 15.0 mph 25.3 mph N/A   Overcast
2:15 PM 26.2 °F 14.2 °F 21.6 °F 82% 30.33 in 10.0 mi East 15.0 mph 21.9 mph N/A   Overcast
2:36 PM 25.7 °F 15.1 °F 21.4 °F 84% 30.32 in 10.0 mi East 11.5 mph 23.0 mph N/A   Overcast
2:56 PM 25.7 °F 14.6 °F 21.2 °F 83% 30.32 in 10.0 mi East 12.7 mph 24.2 mph N/A   Overcast
3:15 PM 25.5 °F 14.9 °F 20.8 °F 82% 30.31 in 10.0 mi East 11.5 mph 26.5 mph N/A   Overcast
3:36 PM 25.7 °F 15.1 °F 20.5 °F 81% 30.31 in 10.0 mi East 11.5 mph 23.0 mph N/A   Overcast
3:56 PM 25.7 °F 15.7 °F 20.8 °F 82% 30.32 in 10.0 mi East 10.4 mph 20.7 mph N/A   Overcast
4:15 PM 25.9 °F 14.8 °F 20.5 °F 80% 30.35 in 10.0 mi ENE 12.7 mph 21.9 mph N/A   Overcast
4:36 PM 25.7 °F 15.1 °F 20.1 °F 79% 30.32 in 10.0 mi East 11.5 mph 23.0 mph N/A   Overcast
4:56 PM 25.7 °F 13.5 °F 20.3 °F 80% 30.31 in 10.0 mi East 15.0 mph 25.3 mph N/A   Overcast
5:15 PM 25.7 °F 15.1 °F 21.2 °F 83% 30.32 in 10.0 mi East 11.5 mph 21.9 mph N/A   Overcast
5:36 PM 26.4 °F 14.5 °F 21.9 °F 83% 30.33 in 10.0 mi East 15.0 mph 21.9 mph N/A   Overcast
5:55 PM 26.4 °F 16.0 °F 22.1 °F 84% 30.34 in 10.0 mi East 11.5 mph 21.9 mph N/A   Overcast
6:16 PM 26.6 °F 15.7 °F 22.8 °F 86% 30.34 in 10.0 mi East 12.7 mph 24.2 mph N/A   Overcast
6:36 PM 27.1 °F 13.8 °F 23.5 °F 86% 30.34 in 10.0 mi East 19.6 mph 25.3 mph N/A   Overcast
6:55 PM 27.3 °F 15.6 °F 23.9 °F 87% 30.33 in 10.0 mi East 15.0 mph 25.3 mph N/A   Overcast
7:16 PM 27.7 °F 16.1 °F 24.8 °F 89% 30.32 in 10.0 mi East 15.0 mph 23.0 mph N/A   Overcast
7:36 PM 28.2 °F 15.5 °F 25.7 °F 90% 30.33 in 7.0 mi East 18.4 mph 24.2 mph N/A   Overcast
7:55 PM 28.4 °F 16.6 °F 26.1 °F 91% 30.33 in 7.0 mi East 16.1 mph 25.3 mph N/A   Overcast
8:16 PM 28.9 °F 19.2 °F 26.6 °F 91% 30.33 in 5.0 mi East 11.5 mph 23.0 mph N/A   Overcast
8:36 PM 28.2 °F 15.9 °F 25.7 °F 90% 30.33 in 3.0 mi East 17.3 mph 25.3 mph N/A   Overcast
8:56 PM 28.9 °F 17.7 °F 26.6 °F 91% 30.32 in 4.0 mi East 15.0 mph 25.3 mph N/A   Overcast
9:16 PM 28.9 °F 19.8 °F 26.8 °F 92% 30.30 in 3.0 mi East 10.4 mph 27.6 mph N/A   Overcast
9:36 PM 29.3 °F 19.6 °F 27.3 °F 92% 30.30 in 4.0 mi East 11.5 mph 25.3 mph N/A   Overcast
10:16 PM 30.4 °F 20.0 °F 28.4 °F 92% 30.30 in 4.0 mi East 13.8 mph 24.2 mph N/A   Overcast
10:35 PM 30.9 °F 20.7 °F 28.9 °F 92% 30.30 in 3.0 mi East 13.8 mph 24.2 mph N/A   Overcast
10:56 PM 30.9 °F 21.7 °F 28.8 °F 92% 30.30 in 4.0 mi East 11.5 mph 21.9 mph N/A   Overcast
11:16 PM 31.1 °F 20.5 °F 29.1 °F 92% 30.28 in 4.0 mi ESE 15.0 mph 26.5 mph N/A   Overcast
11:35 PM 31.5 °F 21.4 °F 29.1 °F 91% 30.29 in 5.0 mi East 13.8 mph 23.0 mph N/A   Overcast
11:56 PM 32.0 °F 23.6 °F 29.7 °F 91% 30.30 in 7.0 mi ESE 10.4 mph 19.6 mph N/A   Overcast